Weather History for KAXN - July, 2013

Change the Weather History Date:

Monday, July 15, 2013

  Actual Average Record
Temperature  
Mean Temperature 76 °F -  
Max Temperature 84 °F 82 °F 98 °F (2006)
Min Temperature 68 °F 61 °F 48 °F (1963)
Cooling Degree Days 11    
Growing Degree Days 26 (Base 50)    
Moisture  
Dew Point 66 °F    
Average Humidity 76    
Maximum Humidity 93    
Minimum Humidity 53    
Precipitation  
Precipitation 0.03 in - - ()
Sea Level Pressure  
Sea Level Pressure 30.19 in    
Wind  
Wind Speed 6 mph (SSE)    
Max Wind Speed 16 mph    
Max Gust Speed 17 mph    
Visibility 8 miles    
Events      
Averages and records for this station are not official NWS values.
T = Trace of Precipitation, MM = Missing Value Source: NWS Daily Summary

Daily Weather History Graph

Daily Weather History Graph

Search for Another Location

Airport or City:

Trip Planner

Search our weather history database for the weather conditions in past years. The results will help you decide how hot, cold, wet, or windy it might be!

Date:

Astronomy

Jul. 15, 2013 Rise Set
Actual Time 5:46 AM CDT 9:08 PM CDT
Civil Twilight 5:09 AM CDT 9:44 PM CDT
Nautical Twilight 4:21 AM CDT 10:32 PM CDT
Astronomical Twilight 3:19 AM CDT 11:33 PM CDT
Moon 1:33 PM CDT (7/15) No Moon Set
Length of Visible Light 16h 35m
Length of Day
15h 22m
Waxing Crescent, 45% of the Moon is Illuminated
Jul 15
Waxing Crescent
Jul 15
First Quarter
Jul 22
Full
Jul 29
Last Quarter
Aug 6
New

Hourly Weather History & Observations

Time (CDT) Temp. Heat Index Dew Point Humidity Pressure Visibility Wind Dir Wind Speed Gust Speed Precip Events Conditions
12:13 AM 69.8 °F - 66.2 °F 88% 30.22 in 5.0 mi Calm Calm - N/A   Overcast
12:53 AM 69.1 °F - 66.9 °F 93% 30.22 in 5.0 mi North 4.6 mph - N/A   Overcast
1:53 AM 69.1 °F - 66.0 °F 90% 30.21 in 8.0 mi East 4.6 mph - N/A   Overcast
2:53 AM 68.0 °F - 66.0 °F 93% 30.20 in 9.0 mi East 4.6 mph - N/A   Overcast
3:53 AM 68.0 °F - 64.9 °F 90% 30.19 in 9.0 mi East 4.6 mph - N/A   Overcast
4:53 AM 68.0 °F - 66.0 °F 93% 30.20 in 6.0 mi ESE 3.5 mph - N/A   Overcast
5:53 AM 68.0 °F - 66.0 °F 93% 30.21 in 5.0 mi ESE 6.9 mph - 0.01 in   Overcast
6:53 AM 68.0 °F - 66.0 °F 93% 30.22 in 5.0 mi ESE 8.1 mph - 0.02 in   Overcast
7:53 AM 68.0 °F - 66.0 °F 93% 30.22 in 5.0 mi ESE 6.9 mph - N/A   Overcast
8:53 AM 69.1 °F - 66.9 °F 93% 30.22 in 5.0 mi SE 5.8 mph - N/A   Overcast
9:53 AM 71.1 °F - 68.0 °F 90% 30.23 in 6.0 mi SE 6.9 mph - N/A   Overcast
10:53 AM 73.9 °F - 69.1 °F 85% 30.22 in 9.0 mi SSE 6.9 mph - N/A   Partly Cloudy
11:53 AM 79.0 °F - 69.1 °F 72% 30.22 in 10.0 mi South 9.2 mph - N/A   Overcast
12:53 PM 81.0 °F 83.3 °F 66.9 °F 62% 30.22 in 10.0 mi SSW 9.2 mph 17.3 mph N/A   Scattered Clouds
1:53 PM 82.0 °F 84.1 °F 66.0 °F 58% 30.20 in 10.0 mi South 10.4 mph - N/A   Partly Cloudy
2:53 PM 82.9 °F 84.6 °F 64.9 °F 54% 30.19 in 10.0 mi South 12.7 mph - N/A   Clear
3:53 PM 84.0 °F 85.8 °F 64.9 °F 53% 30.19 in 10.0 mi South 16.1 mph - N/A   Partly Cloudy
4:53 PM 82.9 °F 84.6 °F 64.9 °F 54% 30.18 in 10.0 mi South 13.8 mph - N/A   Clear
5:53 PM 82.9 °F 84.6 °F 64.9 °F 54% 30.17 in 10.0 mi SSW 10.4 mph - N/A   Clear
6:53 PM 82.0 °F 83.8 °F 64.9 °F 56% 30.16 in 10.0 mi SSW 9.2 mph - N/A   Clear
7:53 PM 81.0 °F 82.7 °F 64.9 °F 58% 30.15 in 10.0 mi South 9.2 mph - N/A   Clear
8:53 PM 77.0 °F - 66.9 °F 71% 30.14 in 10.0 mi SSE 5.8 mph - N/A   Clear
9:53 PM 75.0 °F - 66.9 °F 76% 30.15 in 10.0 mi SSE 6.9 mph - N/A   Clear
10:53 PM 75.0 °F - 66.0 °F 73% 30.15 in 10.0 mi SSE 10.4 mph - N/A   Clear
11:53 PM 75.0 °F - 66.0 °F 73% 30.15 in 10.0 mi South 13.8 mph - N/A   Clear